Location: Drawsko Pomorskie
(53.5317°N, 15.8111°E)
Time: 07:19:32
(UTC+02:00)

ISS - Visible Passes

Search period start: 27 May 2018 00:00
Search period end: 06 June 2018 00:00
Orbit: 402 x 407 km, 51.6° (Epoch: 27 May)

Date Brightness Start Highest point End Pass type
(mag) Time Alt. Az. Time Alt. Az. Time Alt. Az.
27 May -3.5 00:22:34 10° W 00:25:40 42° SSW 00:26:26 35° SSE visible
27 May -3.7 21:54:00 10° WSW 21:57:14 58° S 22:00:28 10° E visible
27 May -3.7 23:30:21 10° W 23:33:34 52° SSW 23:35:43 18° ESE visible
28 May -1.9 01:07:05 10° W 01:08:21 17° WSW 01:08:21 17° WSW visible
28 May -3.8 22:38:10 10° W 22:41:24 60° S 22:44:39 10° ESE visible
29 May -2.9 00:14:42 10° W 00:17:35 29° SSW 00:17:42 29° SSW visible
29 May -3.2 23:22:24 10° W 23:25:30 38° SSW 23:27:06 22° SE visible
30 May -3.5 22:30:09 10° W 22:33:21 49° SSW 22:36:31 10° ESE visible
31 May -2.1 00:07:00 10° W 00:09:09 18° SW 00:09:09 18° SW visible
31 May -2.6 23:14:30 10° W 23:17:17 26° SSW 23:18:35 20° S visible
01 Jun -3.0 22:22:09 10° W 22:25:10 35° SSW 22:28:03 11° SE visible
02 Jun -1.4 00:00:16 10° SW 00:00:41 10° SW 00:00:41 10° SW visible
02 Jun -1.8 23:06:51 10° WSW 23:08:57 16° SW 23:10:11 13° S visible
03 Jun -2.2 22:14:14 10° W 22:16:53 23° SSW 22:19:32 10° SSE visible
